Location: Maccacari
(45.1333°N, 11.1333°E)
Time: 14:21:11
(UTC+00:00)

S-56A Canister/Altair - Pass Details

Date: 28 January 2021
Orbit: 631 x 2501 km, 38.9° (Epoch: 01 March)

Event Time Altitude Azimuth Distance (km) Brightness Sun altitude
Rises 02:56:54 0° 261° (W) 2,996 - -39.2°
Reaches altitude 10° 02:59:23 10° 253° (WSW) 2,021 - -38.8°
Maximum altitude 03:03:29 38° 184° (S) 981 - -38.1°
Exits shadow 03:07:16 13° 120° (ESE) 1,934 10.0 -37.4°
Drops below altitude 10° 03:07:52 10° 117° (ESE) 2,156 10.3 -37.3°
Sets 03:10:35 0° 109° (ESE) 3,228 11.5 -36.9°
